Erzurum, Turkey

9:18 PM +03 on April 28, 2017 (GMT +0300)
Erzurum

Weather History for LTCE - November, 2013

Change the Weather History Date:

Sunday, November 3, 2013

  Actual Average Record
Temperature  
Mean Temperature 38 °F -  
Max Temperature 58 °F 43 °F 61 °F (2012)
Min Temperature 18 °F 26 °F 10 °F (1999)
Degree Days  
Heating Degree Days 27    
Moisture  
Dew Point 21 °F    
Average Humidity 57    
Maximum Humidity 86    
Minimum Humidity 14    
Precipitation  
Precipitation 0.00 in 0.05 in - ()
Sea Level Pressure  
Sea Level Pressure 30.22 in    
Wind  
Wind Speed 2 mph ()    
Max Wind Speed 9 mph    
Max Gust Speed -    
Visibility 8.1 miles    
Events      
Averages and records for this station are not official NWS values.
T = Trace of Precipitation, MM = Missing Value Source: Averaged Metar Reports

Daily Weather History Graph

Daily Weather History Graph

Search for Another Location

Airport or City:

Trip Planner

Search our weather history database for the weather conditions in past years. The results will help you decide how hot, cold, wet, or windy it might be!

Date:

Astronomy

Nov. 03, 2013 Rise Set
Actual Time 5:46 AM EET 4:10 PM EET
Civil Twilight 5:18 AM EET 4:38 PM EET
Nautical Twilight 4:46 AM EET 5:10 PM EET
Astronomical Twilight 4:14 AM EET 5:42 PM EET
Moon 5:26 AM EET (11/3) 4:09 PM EET (11/3)
Length of Visible Light 11h 20m
Length of Day
10h 24m
Waning Crescent, 0% of the Moon is Illuminated
Nov 3
Waning Crescent
Nov 3
New
Nov 10
First Quarter
Nov 17
Full
Nov 25
Last Quarter

Hourly Weather History & Observations

Time (EET) Temp. Windchill Dew Point Humidity Pressure Visibility Wind Dir Wind Speed Gust Speed Precip Events Conditions
12:20 AM 24.8 °F - 19.4 °F 80% 30.24 in - Variable 1.2 mph - N/A   Clear
12:50 AM 24.8 °F - 17.6 °F 74% 30.24 in - Variable 1.2 mph - N/A   Clear
1:20 AM 24.8 °F - 19.4 °F 80% 30.24 in - WSW 2.3 mph - N/A   Clear
1:50 AM 24.8 °F - 19.4 °F 80% 30.24 in - SW 2.3 mph - N/A   Clear
2:00 AM 24 °F - 19 °F 74%  in 12 mi SW 2.3 mph - -  
2:20 AM 23.0 °F - 19.4 °F 86% 30.24 in - Variable 1.2 mph - N/A   Clear
2:50 AM 24.8 °F - 19.4 °F 80% 30.24 in - Calm Calm - N/A   Clear
3:20 AM 24.8 °F - 19.4 °F 80% 30.24 in - Variable 2.3 mph - N/A   Clear
3:50 AM 19.4 °F - 15.8 °F 86% 30.24 in - Calm Calm - N/A   Clear
4:20 AM 23.0 °F - 17.6 °F 80% 30.24 in - Calm Calm - N/A   Clear
4:50 AM 21.2 °F - 17.6 °F 86% 30.24 in - WSW 2.3 mph - N/A   Clear
5:20 AM 21.2 °F - 17.6 °F 86% 30.24 in - Variable 1.2 mph - N/A   Clear
5:50 AM 19.4 °F - 15.8 °F 86% 30.24 in - Calm Calm - N/A   Clear
6:20 AM 21.2 °F - 17.6 °F 86% 30.24 in - WNW 1.2 mph - N/A   Clear
6:50 AM 24.8 °F - 19.4 °F 80% 30.24 in - Calm Calm - N/A   Clear
7:20 AM 30.2 °F - 23.0 °F 75% 30.27 in - Calm Calm - N/A   Clear
7:50 AM 33.8 °F - 23.0 °F 65% 30.27 in - Calm Calm - N/A   Clear
8:00 AM 34 °F - 22 °F 51%  in 12 mi Calm Calm - -  
8:20 AM 37.4 °F - 24.8 °F 60% 30.27 in - Calm Calm - N/A   Clear
8:50 AM 41.0 °F - 24.8 °F 53% 30.27 in - Variable 1.2 mph - N/A   Clear
9:20 AM 44.6 °F - 26.6 °F 49% 30.24 in - Variable 1.2 mph - N/A   Clear
9:50 AM 48.2 °F - 28.4 °F 46% 30.24 in - East 3.5 mph - N/A   Clear
10:20 AM 50.0 °F - 26.6 °F 40% 30.24 in - Variable 2.3 mph - N/A   Clear
10:50 AM 51.8 °F - 24.8 °F 35% 30.21 in - Variable 2.3 mph - N/A   Clear
11:20 AM 53.6 °F - 24.8 °F 33% 30.21 in - Variable 1.2 mph - N/A   Clear
11:50 AM 57.2 °F - 24.8 °F 29% 30.18 in - Variable 2.3 mph - N/A   Clear
12:20 PM 57.2 °F - 24.8 °F 29% 30.18 in - WNW 3.5 mph - N/A   Clear
12:50 PM 57.2 °F - 23.0 °F 27% 30.18 in - West 8.1 mph - N/A   Clear
1:20 PM 57.2 °F - 23.0 °F 27% 30.18 in 6.2 mi West 9.2 mph - N/A   Partly Cloudy
1:50 PM 57.2 °F - 24.8 °F 29% 30.18 in 6.2 mi West 9.2 mph - N/A   Partly Cloudy
2:00 PM 58 °F - 23 °F 14%  in 12 mi West 9.2 mph - -   Scattered Clouds
2:20 PM 57.2 °F - 23.0 °F 27% 30.15 in 6.2 mi West 8.1 mph - N/A   Partly Cloudy
2:50 PM 57.2 °F - 23.0 °F 27% 30.15 in 6.2 mi West 8.1 mph - N/A   Partly Cloudy
3:20 PM 57.2 °F - 21.2 °F 25% 30.15 in 6.2 mi West 9.2 mph - N/A   Partly Cloudy
3:50 PM 53.6 °F - 19.4 °F 26% 30.18 in 6.2 mi West 6.9 mph - N/A   Partly Cloudy
4:20 PM 50.0 °F - 19.4 °F 30% 30.18 in 6.2 mi West 5.8 mph - N/A   Partly Cloudy
4:50 PM 46.4 °F 44.3 °F 19.4 °F 34% 30.18 in 6.2 mi WSW 4.6 mph - N/A   Partly Cloudy
5:20 PM 42.8 °F - 19.4 °F 39% 30.18 in - Variable 1.2 mph - N/A   Clear
5:50 PM 41.0 °F 39.0 °F 21.2 °F 45% 30.18 in - NW 3.5 mph - N/A   Clear
6:20 PM 42.8 °F 40.1 °F 21.2 °F 42% 30.18 in - WSW 4.6 mph - N/A   Clear
6:50 PM 41.0 °F 37.1 °F 21.2 °F 45% 30.18 in - SSW 5.8 mph - N/A   Clear
7:20 PM 41.0 °F 38.0 °F 23.0 °F 49% 30.18 in - SSW 4.6 mph - N/A   Clear
7:50 PM 33.8 °F - 21.2 °F 60% 30.21 in - ESE 2.3 mph - N/A   Clear
8:00 PM 34 °F - 20 °F 44%  in 12 mi ESE 2.3 mph - -  
8:20 PM 33.8 °F - 23.0 °F 65% 30.21 in - ESE 2.3 mph - N/A   Clear
8:50 PM 30.2 °F - 21.2 °F 69% 30.24 in - Calm Calm - N/A   Clear
9:20 PM 28.4 °F - 19.4 °F 69% 30.24 in - Variable 1.2 mph - N/A   Clear
9:50 PM 28.4 °F - 21.2 °F 74% 30.24 in - Calm Calm - N/A   Clear
10:20 PM 26.6 °F - 19.4 °F 74% 30.24 in - Calm Calm - N/A   Clear
10:50 PM 28.4 °F - 19.4 °F 69% 30.24 in - Variable 1.2 mph - N/A   Clear
11:20 PM 26.6 °F - 19.4 °F 74% 30.24 in - Variable 1.2 mph - N/A   Clear
11:50 PM 26.6 °F - 19.4 °F 74% 30.24 in - Calm Calm - N/A   Clear